CW8081 Thessaloniki GR current weather conditions

sailwx.info

Wind from 167

Air temperature 28.3° C
Dewpoint 17.5° C

Last reported at 2017-Jun-23 19:41 UTC.
Time now 2017-Jun-23 21:03 UTC

Location: N 40°34' E 022°58'.
View on Google Maps.

See reports from other nearby stations

  
Tides and Currents Weather Stations Pressure Air Temp Water Temp Dewpoint Dewpoint Depression Visibility Wind Speed Wind Dir Waves Ship Positions
date/time (UTC)wind fromknots sea level pressurealtimeterstation pressurevisibilityair tempwater tempwave heightnotes
2017-Jun-23 19:41 167 28.3
2017-Jun-23 19:16 110 28.9
2017-Jun-23 19:11 111 28.9
2017-Jun-23 19:06 116 28.9
2017-Jun-23 19:01 146 28.9
2017-Jun-23 18:41 147 29.4
2017-Jun-23 18:16 148 1 gusting 6 30.0
2017-Jun-23 18:11 157 0 gusting 4 30.0
2017-Jun-23 18:06 144 1 gusting 6 30.0
2017-Jun-23 18:01 152 1 gusting 7 30.0
2017-Jun-23 17:41 166 30.6
2017-Jun-23 17:36 168 2 gusting 6 31.1
2017-Jun-23 17:31 153 2 gusting 8 31.1
2017-Jun-23 17:11 163 0 gusting 6 31.7
2017-Jun-23 17:06 156 2 gusting 7 32.2
2017-Jun-23 16:46 195 3 gusting 6 32.2
2017-Jun-23 16:41 186 4 gusting 6 32.2
2017-Jun-23 16:36 164 4 gusting 6 32.2
2017-Jun-23 16:31 153 3 gusting 10 32.2
2017-Jun-23 16:11 206 6 gusting 7 32.8
2017-Jun-23 16:06 205 5 gusting 6 32.8
2017-Jun-23 15:46 200 6 gusting 10 33.3
2017-Jun-23 15:41 191 4 gusting 7 33.3
2017-Jun-23 15:06 218 4 gusting 8 33.9
2017-Jun-23 15:01 207 7 gusting 11 33.9
2017-Jun-23 14:46 206 6 gusting 10 34.4
2017-Jun-23 14:31 222 4 gusting 10 35.0
2017-Jun-23 14:16 218 6 gusting 8 35.0
2017-Jun-23 14:06 219 5 gusting 7 35.0
2017-Jun-23 14:01 224 5 gusting 7 35.6
2017-Jun-23 13:46 218 6 gusting 7 35.6
2017-Jun-23 13:41 210 6 gusting 8 35.6
2017-Jun-23 13:36 213 6 gusting 7 35.6
2017-Jun-23 13:16 237 6 gusting 7 35.0
2017-Jun-23 13:01 245 5 gusting 11 35.0
2017-Jun-23 12:46 226 5 gusting 7 35.6
2017-Jun-23 12:41 228 5 gusting 8 35.0
2017-Jun-23 12:36 240 5 gusting 6 35.0
2017-Jun-23 12:01 253 3 gusting 10 34.4
2017-Jun-23 11:46 264 5 gusting 7 33.9
2017-Jun-23 11:41 260 5 gusting 8 33.9
2017-Jun-23 11:36 233 5 gusting 7 33.9
2017-Jun-23 11:31 237 6 gusting 8 33.3
2017-Jun-23 11:11 267 6 gusting 7 33.3
2017-Jun-23 11:06 243 5 gusting 8 33.3
2017-Jun-23 10:46 257 5 gusting 8 32.8
2017-Jun-23 10:36 266 6 gusting 8 32.8
2017-Jun-23 10:31 233 5 gusting 8 32.2
2017-Jun-23 10:16 242 6 gusting 10 31.7
2017-Jun-23 10:06 226 6 gusting 10 31.7
2017-Jun-23 10:01 238 4 gusting 10 31.1
2017-Jun-23 09:41 237 5 gusting 8 31.1
2017-Jun-23 09:36 253 6 gusting 8 31.1
2017-Jun-23 09:16 212 5 gusting 7 30.0
2017-Jun-23 09:01 241 5 gusting 7 29.4
2017-Jun-23 08:31 231 5 gusting 8 29.4
2017-Jun-23 08:11 217 5 gusting 6 28.3
2017-Jun-23 08:06 235 5 gusting 6 28.3
2017-Jun-23 08:01 244 4 gusting 7 28.3
2017-Jun-23 07:46 221 4 gusting 6 27.8
2017-Jun-23 07:41 253 3 gusting 6 27.8
2017-Jun-23 07:16 220 2 gusting 6 27.2
2017-Jun-23 07:06 227 1 gusting 6 26.7
2017-Jun-23 07:01 210 1 gusting 6 26.7
2017-Jun-23 06:46 238 2 gusting 5 26.7
2017-Jun-23 06:41 236 2 gusting 4 26.7
2017-Jun-23 06:36 233 2 gusting 5 26.7
2017-Jun-23 06:06 163 26.1
2017-Jun-23 05:36 156 25.0
2017-Jun-23 05:31 156 25.0
2017-Jun-23 05:16 126 24.4
2017-Jun-23 05:11 124 24.4
2017-Jun-23 05:01 124 23.9
2017-Jun-23 04:46 124 22.8
2017-Jun-23 04:36 124 22.8
2017-Jun-23 04:31 124 22.2
2017-Jun-23 04:16 124 21.7
2017-Jun-23 04:11 124 21.7
2017-Jun-23 04:06 123 21.7
2017-Jun-23 03:41 124 21.7
2017-Jun-23 03:36 124 21.7
2017-Jun-23 03:16 124 21.7
2017-Jun-23 03:11 123 21.7
2017-Jun-23 03:06 123 22.2
2017-Jun-23 03:01 123 22.2
2017-Jun-23 02:46 124 22.2
2017-Jun-23 02:16 124 23.3
2017-Jun-23 02:11 124 23.3
2017-Jun-23 02:06 124 23.3
2017-Jun-23 02:01 124 23.3
2017-Jun-23 01:46 123 23.3
2017-Jun-23 01:36 123 23.3
2017-Jun-23 01:11 124 22.8
2017-Jun-23 01:06 124 23.3
2017-Jun-23 01:01 124 23.3
2017-Jun-23 00:46 124 23.3
2017-Jun-23 00:41 124 23.3
2017-Jun-23 00:16 124 23.9
2017-Jun-22 23:11 124 25.6
2017-Jun-22 23:06 124 25.6
2017-Jun-22 23:01 124 25.6
2017-Jun-22 22:46 124 25.6
2017-Jun-22 22:36 124 25.6
2017-Jun-22 22:31 124 25.6
2017-Jun-22 22:01 124 25.6
2017-Jun-22 21:46 148 25.6
2017-Jun-22 21:41 148 25.6
2017-Jun-22 21:36 148 25.6
2017-Jun-22 21:31 148 25.6
2017-Jun-22 21:11 148 25.6
2017-Jun-22 21:06 148 25.6
2017-Jun-22 21:01 148 26.1
2017-Jun-22 20:46 148 26.1
2017-Jun-22 20:41 148 26.1
2017-Jun-22 20:36 148 26.7
2017-Jun-22 20:31 148 26.7
2017-Jun-22 20:11 147 27.8
2017-Jun-22 20:01 147 27.8
2017-Jun-22 19:41 148 28.3
2017-Jun-22 19:36 148 28.9
2017-Jun-22 19:31 148 28.9
2017-Jun-22 19:11 148 29.4
2017-Jun-22 19:01 148 29.4
2017-Jun-22 18:46 148 30.0
2017-Jun-22 18:41 148 30.0
2017-Jun-22 18:31 151 30.0
2017-Jun-22 18:11 145 30.6
2017-Jun-22 18:01 149 0 gusting 6 30.6
2017-Jun-22 17:46 166 0 gusting 4 31.1
2017-Jun-22 17:41 191 0 gusting 2 31.1
2017-Jun-22 17:36 192 31.1
2017-Jun-22 17:16 193 31.1
2017-Jun-22 17:11 193 0 gusting 4 31.1
2017-Jun-22 17:06 192 31.1
2017-Jun-22 16:46 193 31.1
2017-Jun-22 16:36 193 31.7
2017-Jun-22 16:31 191 1 gusting 6 31.7
2017-Jun-22 16:16 246 31.7
2017-Jun-22 16:11 259 31.7
2017-Jun-22 16:06 259 0 gusting 6 31.1
2017-Jun-22 15:46 257 4 gusting 10 31.1
2017-Jun-22 15:41 251 3 gusting 7 31.1
2017-Jun-22 15:36 250 1 gusting 5 31.7
2017-Jun-22 15:31 255 5 gusting 10 31.7
2017-Jun-22 15:16 230 4 gusting 8 32.2
2017-Jun-22 14:46 213 6 gusting 10 33.3
2017-Jun-22 14:41 230 6 gusting 10 33.9
2017-Jun-22 14:36 217 6 gusting 10 33.9
2017-Jun-22 14:31 215 6 gusting 10 33.9
2017-Jun-22 14:16 212 6 gusting 10 33.9
2017-Jun-22 14:11 218 7 gusting 10 33.3
2017-Jun-22 14:06 222 6 gusting 10 33.3
2017-Jun-22 14:01 224 6 gusting 10 33.3
2017-Jun-22 13:46 228 6 gusting 10 33.3
2017-Jun-22 13:11 228 5 gusting 8 33.9
2017-Jun-22 13:06 226 7 gusting 11 33.9
2017-Jun-22 13:01 223 6 gusting 11 34.4
2017-Jun-22 12:46 243 5 gusting 8 33.9
2017-Jun-22 12:41 227 6 gusting 8 33.9
2017-Jun-22 12:36 217 6 gusting 10 33.3
2017-Jun-22 12:31 229 4 gusting 10 33.3
2017-Jun-22 12:11 215 6 gusting 10 33.3
2017-Jun-22 11:46 217 7 gusting 10 33.3
2017-Jun-22 11:31 262 5 gusting 10 32.8
2017-Jun-22 11:16 249 6 gusting 10 31.7
2017-Jun-22 11:11 241 5 gusting 11 31.7
2017-Jun-22 11:06 255 6 gusting 10 31.7
2017-Jun-22 11:01 255 5 gusting 10 31.7
2017-Jun-22 10:46 238 6 gusting 10 31.7
2017-Jun-22 10:41 221 7 gusting 10 31.7
2017-Jun-22 10:36 215 6 gusting 8 31.7
2017-Jun-22 10:31 217 5 gusting 10 31.1
2017-Jun-22 10:11 244 5 gusting 10 30.6
2017-Jun-22 10:06 227 6 gusting 8 30.6
2017-Jun-22 10:01 219 5 gusting 10 30.6
2017-Jun-22 09:46 264 5 gusting 7 30.0
2017-Jun-22 09:36 241 6 gusting 10 30.6
2017-Jun-22 09:31 228 4 gusting 10 30.0
2017-Jun-22 09:16 245 3 gusting 6 29.4
2017-Jun-22 09:11 235 4 gusting 6 28.9
2017-Jun-22 08:46 222 6 gusting 10 28.3
2017-Jun-22 08:41 213 6 gusting 8 28.3
2017-Jun-22 08:31 224 5 gusting 8 28.3
2017-Jun-22 08:01 259 4 gusting 8 27.2
2017-Jun-22 07:41 245 4 gusting 7 26.7
2017-Jun-22 07:36 258 5 gusting 7 26.1
2017-Jun-22 07:06 213 2 gusting 6 25.6
2017-Jun-22 07:01 280 1 gusting 6 25.6
2017-Jun-22 06:41 233 4 gusting 5 25.0
2017-Jun-22 06:31 229 4 gusting 6 24.4
2017-Jun-22 06:16 219 0 gusting 5 24.4
2017-Jun-22 06:01 213 23.9
2017-Jun-22 05:41 209 1 gusting 5 23.3
2017-Jun-22 05:16 144 22.8
2017-Jun-22 05:11 144 22.8
2017-Jun-22 05:06 144 22.8
2017-Jun-22 05:01 144 22.8
2017-Jun-22 04:46 144 22.2
2017-Jun-22 04:41 144 22.2
2017-Jun-22 04:36 144 21.7
2017-Jun-22 04:16 143 21.7
2017-Jun-22 04:06 144 21.7
2017-Jun-22 04:01 144 21.7
2017-Jun-22 03:36 144 21.1
2017-Jun-22 03:31 143 21.1
2017-Jun-22 03:11 143 20.6
2017-Jun-22 02:46 143 20.6
2017-Jun-22 02:41 143 20.6
2017-Jun-22 02:36 143 20.6
2017-Jun-22 02:31 143 20.6
2017-Jun-22 02:16 143 20.6
2017-Jun-22 02:11 143 20.6
2017-Jun-22 02:06 143 20.6
2017-Jun-22 02:01 143 20.6
2017-Jun-22 01:46 143 21.1
2017-Jun-22 01:36 143 21.1
2017-Jun-22 01:31 143 21.1
2017-Jun-22 01:16 143 21.7
2017-Jun-22 01:11 143 21.7
2017-Jun-22 01:06 143 21.7
2017-Jun-22 01:01 143 21.7
2017-Jun-22 00:41 143 22.2
2017-Jun-22 00:36 143 22.2
2017-Jun-22 00:31 143 22.2
2017-Jun-22 00:16 143 22.2
2017-Jun-22 00:01 143 22.2
2017-Jun-21 23:46 143 22.8
2017-Jun-21 23:41 143 22.8
2017-Jun-21 23:36 143 22.8
2017-Jun-21 23:16 143 22.8
2017-Jun-21 23:11 143 23.3
2017-Jun-21 23:01 143 23.3
2017-Jun-21 22:46 143 23.3
2017-Jun-21 22:41 143 23.9
2017-Jun-21 22:36 143 23.9
2017-Jun-21 22:11 143 23.9
2017-Jun-21 22:06 143 23.9
2017-Jun-21 21:41 142 24.4
2017-Jun-21 21:31 142 24.4
2017-Jun-21 21:16 142 24.4
2017-Jun-21 21:01 144 24.4